Date,TemperatureHighF,TemperatureAvgF,TemperatureLowF,DewpointHighF,DewpointAvgF,DewpointLowF,HumidityHigh,HumidityAvg,HumidityLow,PressureMaxIn,PressureMinIn,WindSpeedMaxMPH,WindSpeedAvgMPH,GustSpeedMaxMPH,PrecipitationSumIn
2012-1-1,63.3,48.7,37.8,41.6,29.2,25.1,67,48,32,30.65,30.13,15,9,25,0.00
2012-1-2,55.5,44.3,31.9,28.3,24.0,20.0,74,48,27,30.79,30.65,13,5,18,0.00
2012-1-3,59.0,48.3,38.3,36.1,24.6,21.7,69,41,25,30.68,30.29,18,9,27,0.00
2012-1-4,67.5,53.3,45.1,44.4,38.3,33.4,82,59,36,30.35,30.23,21,7,29,0.00
2012-1-5,66.3,53.2,41.0,52.8,43.0,32.7,90,69,50,30.38,30.14,8,4,15,0.00
2012-1-6,69.3,59.2,49.8,53.9,51.4,47.4,97,77,53,30.14,29.91,18,10,27,0.00
2012-1-7,64.6,55.5,45.9,53.9,42.0,36.3,96,63,37,30.08,29.94,13,5,19,0.00
2012-1-8,57.2,52.9,44.1,53.7,46.4,36.6,92,79,55,30.08,29.98,7,3,12,0.13
2012-1-9,51.2,44.2,36.0,48.4,43.5,35.0,99,98,90,30.14,29.96,14,9,23,0.41
2012-1-10,57.0,45.0,36.1,40.8,34.6,28.4,97,71,34,30.12,29.95,12,7,23,0.00
2012-1-11,74.1,57.1,43.3,38.1,34.9,32.4,72,47,22,29.97,29.71,16,8,24,0.00
2012-1-12,43.3,36.8,31.8,34.7,17.6,8.3,75,48,25,30.35,29.96,18,9,33,0.00
2012-1-13,55.2,42.8,33.1,22.8,18.1,13.1,54,39,19,30.43,30.30,8,4,30,0.00
2012-1-14,64.8,49.5,37.3,27.4,20.3,14.9,49,33,17,30.47,30.33,8,5,13,0.00
2012-1-15,58.8,52.5,44.5,57.1,44.6,26.7,96,76,48,30.37,30.19,19,12,29,0.00
2012-1-16,70.0,62.1,58.5,62.6,59.5,57.1,99,92,75,30.19,29.95,19,14,28,0.00
2012-1-17,68.4,58.3,38.4,62.1,47.9,28.3,98,71,38,30.28,29.95,15,9,27,0.00
2012-1-18,67.2,47.1,28.3,41.6,31.5,24.1,84,58,29,30.36,30.08,12,5,19,0.00
2012-1-19,77.6,61.3,49.5,53.7,47.1,39.5,94,63,32,30.08,29.86,16,10,23,0.00
2012-1-20,74.3,62.9,56.5,62.7,58.1,50.6,98,86,63,29.88,29.76,14,9,20,0.00
2012-1-21,62.2,49.3,39.0,59.5,41.7,33.2,93,76,51,30.06,29.87,13,7,20,0.00
2012-1-22,77.2,61.3,46.7,64.2,47.7,17.3,99,71,18,29.97,29.77,18,10,26,0.00
2012-1-23,69.0,53.3,41.9,39.5,34.9,18.8,75,52,21,30.16,29.97,7,4,25,0.00
2012-1-24,65.0,56.3,51.4,64.6,51.8,39.2,99,86,62,30.05,29.81,15,6,20,0.44
2012-1-25,65.4,52.0,41.7,64.5,50.5,40.4,99,94,84,30.00,29.66,17,8,22,1.23
2012-1-26,65.3,51.0,41.2,44.7,39.7,34.0,98,70,32,30.14,29.97,9,4,22,0.02
2012-1-27,69.8,56.4,45.4,44.4,39.6,37.6,74,55,34,30.15,29.94,21,8,35,0.00
2012-1-28,56.1,46.7,36.3,40.7,28.6,20.9,73,51,28,30.47,30.15,14,8,24,0.00
2012-1-29,60.9,47.2,34.7,34.4,28.9,22.9,66,50,32,30.54,30.36,9,4,21,0.00
2012-1-30,59.7,52.5,44.1,57.1,48.9,34.1,99,88,60,30.37,30.16,14,8,19,0.05
2012-1-31,69.0,60.8,56.4,59.9,57.6,55.6,99,90,71,30.17,30.02,13,9,20,0.15
2012-2-1,78.1,66.1,57.6,63.8,57.7,47.2,99,78,35,30.15,30.03,8,3,17,0.00
2012-2-2,68.8,62.6,55.9,64.5,61.1,50.0,99,95,80,30.09,29.92,15,6,20,0.00
2012-2-3,71.9,66.2,62.4,63.7,62.5,60.4,98,88,71,29.98,29.90,18,9,28,0.00
2012-2-4,65.2,50.6,45.7,63.8,41.6,36.1,96,71,55,30.29,29.97,17,11,23,0.00
2012-2-5,45.9,41.0,36.7,37.4,34.9,32.8,93,79,68,30.43,30.27,19,9,26,0.05
2012-2-6,50.8,42.4,35.5,40.0,35.9,32.8,90,78,61,30.42,30.21,7,3,20,0.00
2012-2-7,61.6,49.3,38.3,46.8,41.1,36.9,96,75,54,30.39,30.21,6,2,10,0.00
2012-2-8,51.7,42.8,34.5,41.3,37.6,32.5,93,82,66,30.52,30.35,11,6,15,0.00
2012-2-9,56.5,45.1,34.1,43.9,39.2,33.3,98,81,55,30.40,30.16,11,4,16,0.00
2012-2-10,58.9,49.5,40.4,48.3,41.2,34.0,98,76,42,30.37,30.13,12,5,18,0.18
2012-2-11,47.0,37.7,30.2,34.7,25.9,17.4,93,65,38,30.60,30.35,12,7,17,0.00
2012-2-12,37.4,31.3,24.0,34.2,22.1,17.2,96,69,53,30.60,30.24,11,5,17,0.01
2012-2-13,69.3,50.6,35.3,52.5,42.7,34.2,99,79,38,30.24,29.91,12,4,18,0.27
2012-2-14,73.1,60.6,49.8,59.1,51.8,43.9,98,75,43,29.98,29.82,15,8,23,0.00
2012-2-15,72.5,64.2,55.2,63.1,53.5,37.6,99,72,38,30.06,29.85,18,6,27,0.00
2012-2-16,60.9,52.5,45.6,46.0,41.0,31.1,89,66,41,30.25,30.06,11,5,16,0.01
2012-2-17,52.8,49.9,45.7,52.5,49.3,44.9,99,98,91,30.14,29.91,10,4,14,1.79
2012-2-18,52.5,49.1,44.7,52.2,48.5,43.6,100,98,94,30.12,29.84,10,6,16,1.24
2012-2-19,60.1,49.6,43.2,46.9,44.2,41.0,95,83,56,30.19,30.03,11,6,18,0.00
2012-2-20,66.6,54.3,44.9,55.5,50.5,43.8,98,88,64,30.17,29.99,18,10,28,0.00
2012-2-21,72.1,60.6,48.3,58.0,52.9,46.3,95,78,47,30.19,29.98,17,7,23,0.00
2012-2-22,83.9,69.0,59.9,59.8,48.4,20.3,96,58,10,29.98,29.70,17,9,24,0.00
2012-2-23,87.9,72.2,60.2,55.2,45.2,31.5,73,42,14,29.75,29.55,16,9,23,0.00
2012-2-24,60.1,50.2,42.9,43.7,23.7,14.9,58,36,19,30.42,29.75,20,11,30,0.00
2012-2-25,57.4,46.4,35.5,31.2,22.6,15.7,69,41,21,30.48,30.24,12,5,24,0.00
2012-2-26,61.7,50.4,38.3,50.6,42.6,28.8,92,75,58,30.24,30.06,16,11,25,0.00
2012-2-27,60.1,57.6,54.9,59.5,56.6,50.9,99,97,85,30.25,30.13,10,5,18,0.10
2012-2-28,72.6,65.1,58.9,66.8,62.6,58.6,100,92,74,30.13,29.88,25,14,36,0.03
2012-2-29,74.6,66.6,60.7,64.9,50.4,34.7,99,63,27,30.05,29.90,17,5,26,0.01
2012-3-1,76.3,65.8,58.3,66.1,60.4,45.5,98,84,56,29.96,29.69,14,7,19,0.00
2012-3-2,76.5,67.4,53.7,66.5,51.4,34.2,98,63,23,29.80,29.65,16,7,26,0.00
2012-3-3,59.9,52.4,44.5,41.0,29.7,19.0,63,43,24,30.24,29.80,13,8,21,0.00
2012-3-4,70.4,57.7,45.5,32.3,25.3,17.9,44,30,16,30.30,30.16,14,6,21,0.00
2012-3-5,72.0,59.3,47.9,49.8,38.5,29.3,87,49,22,30.36,30.20,18,11,28,0.00
2012-3-6,71.0,60.5,52.9,57.2,52.9,49.5,94,78,51,30.23,29.97,27,18,40,0.00
2012-3-7,68.0,64.1,60.6,64.1,61.3,57.2,95,91,85,29.98,29.84,26,18,38,0.00
2012-3-8,79.3,60.7,40.3,66.8,56.8,39.6,98,88,56,30.24,29.86,20,14,29,0.00
2012-3-9,40.2,37.9,36.1,39.7,37.4,35.4,99,98,97,30.42,30.20,18,11,28,0.46
2012-3-10,47.8,43.2,37.8,47.8,42.9,37.5,100,99,99,30.38,30.07,7,3,17,0.49
2012-3-11,74.0,58.4,47.1,57.4,48.9,38.7,100,76,30,30.11,29.98,7,3,11,0.12
2012-3-12,80.8,65.6,52.6,63.0,54.7,48.4,96,71,38,30.10,30.00,10,7,18,0.00
2012-3-13,76.7,67.1,61.4,65.7,63.3,60.8,99,88,66,30.11,29.99,16,10,23,0.00
2012-3-14,75.7,67.9,63.6,66.9,63.8,61.3,95,87,72,30.09,30.00,15,11,22,0.00
2012-3-15,78.5,68.4,63.1,65.2,63.1,61.0,96,84,62,30.14,30.01,16,10,26,0.00
2012-3-16,76.0,68.0,64.5,65.9,63.8,62.3,96,87,64,30.09,29.95,15,10,22,0.00
2012-3-17,75.9,67.8,63.2,64.7,62.6,61.1,94,84,62,30.03,29.91,18,13,24,0.00
2012-3-18,72.2,67.2,63.0,66.2,63.6,61.2,95,88,78,29.98,29.80,20,15,29,0.00
2012-3-19,75.4,67.5,56.1,66.8,62.9,54.1,97,86,73,29.81,29.53,30,13,41,1.14
2012-3-20,60.7,57.7,52.9,54.7,47.4,38.9,98,70,47,29.80,29.60,12,4,28,0.71
2012-3-21,66.8,59.4,47.7,40.6,37.1,33.6,58,44,31,29.93,29.84,12,6,20,0.00
2012-3-22,79.1,63.5,51.5,47.7,40.9,34.0,75,47,20,30.00,29.84,19,11,31,0.00
2012-3-23,83.1,64.0,47.9,55.1,46.0,40.7,80,56,26,30.07,29.91,8,4,15,0.00
2012-3-24,78.5,65.3,57.0,64.9,59.8,54.9,98,84,58,30.06,29.95,9,5,12,0.00
2012-3-25,82.1,68.2,58.5,64.3,57.6,43.4,99,74,27,30.09,29.97,8,4,9,0.01
2012-3-26,78.3,67.4,56.8,59.5,56.1,49.7,97,70,40,30.07,29.93,15,7,20,0.00
2012-3-27,75.8,65.6,58.1,65.7,60.8,53.8,97,85,68,30.06,29.95,15,8,23,0.00
2012-3-28,69.5,64.3,61.0,65.4,62.4,60.1,98,94,81,30.02,29.90,12,6,16,0.35
2012-3-29,79.7,68.2,60.7,67.2,64.0,60.4,99,88,59,29.96,29.78,11,6,13,0.00
2012-3-30,83.6,71.8,62.7,66.2,63.1,56.6,99,77,43,29.86,29.74,15,8,19,0.00
2012-3-31,91.1,76.5,65.4,67.7,60.3,47.8,95,63,23,29.84,29.73,13,8,17,0.00
2012-4-1,85.3,73.2,63.4,67.5,64.4,61.1,96,76,45,29.80,29.64,15,11,25,0.00
2012-4-2,82.5,72.1,61.9,69.7,62.9,56.2,98,76,44,29.69,29.52,16,10,25,0.00
2012-4-3,80.0,71.5,63.3,68.8,59.1,37.8,97,69,33,29.83,29.61,11,5,16,0.00
2012-4-4,83.8,68.5,56.4,53.4,42.1,30.1,64,40,18,29.92,29.74,7,3,11,0.00
2012-4-5,88.4,73.2,62.9,64.2,58.8,45.7,97,65,23,29.87,29.75,13,6,23,0.00
2012-4-6,80.5,69.3,59.8,64.5,58.5,52.2,89,70,49,30.00,29.87,11,5,16,0.00
2012-4-7,81.7,70.2,62.4,64.8,61.7,56.7,96,77,45,30.17,29.98,12,7,19,0.00
2012-4-8,80.1,69.0,60.8,61.9,59.3,56.4,96,74,47,30.23,30.12,8,4,12,0.00
2012-4-9,78.5,68.2,60.0,62.8,58.9,56.0,97,74,49,30.18,30.04,8,6,13,0.00
2012-4-10,79.6,68.4,58.8,60.5,58.2,55.5,93,72,46,30.12,30.00,10,6,15,0.00
2012-4-11,80.4,68.8,59.5,65.1,60.2,56.7,98,77,45,30.10,29.94,12,7,19,0.00
2012-4-12,78.4,70.0,64.9,66.6,64.5,63.3,97,83,65,30.00,29.87,16,10,23,0.02
2012-4-13,76.7,69.2,65.0,68.5,65.8,63.2,97,89,74,29.96,29.81,16,11,25,0.04
2012-4-14,75.8,71.1,68.3,68.7,67.1,65.2,92,87,78,29.85,29.66,21,16,32,0.00
2012-4-15,75.8,69.2,55.5,68.6,57.0,44.0,95,68,39,29.92,29.63,19,8,30,0.13
2012-4-16,73.7,64.0,55.9,55.2,46.8,34.6,86,55,35,30.15,29.92,10,4,24,0.00
2012-4-17,80.1,65.6,53.1,58.8,49.3,36.3,98,63,22,30.24,30.12,7,3,11,0.00
2012-4-18,81.1,68.4,57.8,60.1,53.4,45.2,96,62,34,30.17,29.96,10,6,16,0.00
2012-4-19,81.1,68.6,55.7,61.4,55.3,50.0,87,65,45,30.00,29.74,15,10,22,0.00
2012-4-20,72.4,65.5,57.4,64.0,56.2,43.5,94,74,41,30.02,29.71,14,8,22,0.00
2012-4-21,77.0,62.1,44.9,46.4,43.8,41.3,88,55,30,30.09,29.98,10,5,19,0.00
2012-4-22,87.1,73.4,61.5,50.9,45.5,40.5,55,38,25,30.12,29.99,6,3,11,0.00
2012-4-23,79.7,66.9,54.5,49.5,43.7,39.2,57,44,29,30.22,30.02,6,3,11,0.00
2012-4-24,83.0,70.0,56.3,58.4,52.5,45.0,87,56,36,30.06,29.87,15,9,21,0.00
2012-4-25,89.3,74.4,62.9,68.7,62.4,56.7,91,70,38,29.90,29.76,17,12,29,0.00
2012-4-26,89.4,76.6,65.9,68.8,63.3,56.5,88,67,34,29.83,29.73,18,13,27,0.00
2012-4-27,87.2,73.5,64.0,66.9,61.6,56.6,91,69,38,29.83,29.70,19,14,30,0.00
2012-4-28,84.1,72.8,64.7,66.2,63.4,61.2,91,74,48,29.84,29.71,20,14,28,0.00
2012-4-29,80.8,73.2,68.3,66.4,64.3,60.5,91,75,52,29.92,29.77,21,12,35,0.00
2012-4-30,82.3,73.9,69.8,69.4,67.1,65.0,93,80,61,29.95,29.83,14,10,23,0.00
2012-5-1,84.1,74.3,68.1,68.1,66.1,63.9,94,77,52,29.94,29.77,15,10,22,0.00
2012-5-2,82.6,72.7,66.4,68.8,66.3,64.5,97,82,58,29.90,29.80,14,8,23,0.01
2012-5-3,88.1,77.2,67.8,69.0,67.5,65.9,96,74,49,29.93,29.80,13,9,20,0.00
2012-5-4,90.0,77.5,67.8,70.0,67.2,64.3,96,73,44,29.97,29.80,14,8,18,0.00
2012-5-5,91.9,78.9,67.0,72.8,69.6,60.3,94,75,52,29.93,29.72,12,9,22,0.22
2012-5-6,86.7,74.0,63.7,69.6,65.2,61.1,96,76,50,29.92,29.76,13,7,19,1.02
2012-5-7,87.7,73.2,62.2,73.2,67.6,59.6,97,84,59,29.94,29.72,15,6,18,0.11
2012-5-8,64.3,62.3,59.5,63.4,61.4,59.2,99,97,86,30.03,29.83,14,4,19,0.75
2012-5-9,77.6,66.1,58.5,64.1,61.1,58.1,99,85,57,30.10,29.92,8,4,14,0.28
2012-5-10,69.6,64.2,58.6,65.0,62.0,57.8,98,93,82,29.93,29.71,14,5,21,2.25
2012-5-11,72.8,64.8,57.5,67.5,61.9,56.9,99,91,75,29.98,29.77,6,2,20,0.12
2012-5-12,73.4,64.7,57.7,61.7,59.3,56.8,98,83,61,30.16,29.98,9,4,16,0.01
2012-5-13,78.0,67.2,56.5,61.2,58.0,55.3,99,75,48,30.21,30.07,10,4,16,0.00
2012-5-14,79.0,68.7,60.2,62.8,58.4,55.3,97,71,49,30.11,29.94,7,2,9,0.39
2012-5-15,71.2,63.0,59.2,62.9,59.8,57.7,99,90,69,30.11,29.99,9,3,13,0.41
2012-5-16,81.8,69.7,57.1,60.3,56.1,49.8,98,67,35,30.12,29.97,7,3,14,0.01
2012-5-17,84.0,73.2,62.1,61.3,56.9,52.2,83,59,35,30.04,29.88,8,4,13,0.00
2012-5-18,81.6,71.8,61.4,63.6,60.6,57.4,91,70,46,29.94,29.81,14,10,20,0.00
2012-5-19,82.8,73.5,66.4,67.4,63.6,60.9,92,73,49,29.94,29.83,18,12,30,0.00
2012-5-20,83.0,73.8,67.1,67.0,63.2,58.6,95,72,47,30.08,29.92,13,6,25,0.00
2012-5-21,86.3,75.3,64.0,65.9,61.0,56.1,94,64,38,30.14,30.01,8,3,14,0.00
2012-5-22,85.6,76.3,66.9,63.6,59.6,55.4,79,58,37,30.03,29.79,9,6,15,0.00
2012-5-23,86.5,75.3,65.6,70.3,65.9,55.6,94,74,55,29.81,29.57,17,13,29,0.00
2012-5-24,88.7,77.2,69.9,72.4,69.4,67.0,91,78,56,29.70,29.57,18,12,26,0.00
2012-5-25,89.0,77.5,69.7,71.2,68.8,66.9,93,76,52,29.91,29.70,17,13,27,0.00
2012-5-26,87.1,77.5,70.8,70.1,67.6,63.1,94,74,46,29.97,29.85,16,12,28,0.00
2012-5-27,85.1,75.7,68.4,67.5,66.0,64.0,94,73,51,29.94,29.81,14,9,23,0.00
2012-5-28,87.7,77.6,68.7,69.6,67.2,63.5,95,72,54,29.88,29.76,14,9,21,0.00
2012-5-29,90.5,79.1,69.1,71.2,68.7,66.9,96,73,49,29.89,29.77,12,7,19,0.00
2012-5-30,86.3,77.1,69.7,71.7,69.3,67.8,96,78,57,29.87,29.68,15,9,19,0.00
2012-5-31,86.7,76.2,68.9,70.6,64.8,55.7,96,71,36,29.91,29.65,17,6,24,0.00
2012-6-1,87.2,76.0,63.5,65.1,61.9,56.6,90,64,42,30.02,29.82,8,4,13,0.00
2012-6-2,88.0,77.8,67.7,69.0,66.4,61.9,95,70,46,29.92,29.78,15,8,22,0.00
2012-6-3,87.5,77.1,70.2,71.6,68.8,66.0,94,77,49,29.90,29.78,17,10,26,0.00
2012-6-4,87.3,77.9,70.7,72.1,69.9,67.1,96,78,57,29.88,29.72,11,7,18,0.00
2012-6-5,92.6,79.6,70.5,71.9,68.0,62.3,96,71,41,29.84,29.68,7,4,15,0.00
2012-6-6,91.9,81.4,69.6,70.7,66.1,62.3,91,62,39,29.79,29.69,10,5,15,0.00
2012-6-7,79.2,72.3,64.8,69.1,66.4,62.2,96,83,60,29.96,29.77,11,5,17,0.25
2012-6-8,82.5,72.8,66.5,69.4,67.0,65.1,98,83,60,29.96,29.82,7,3,12,0.00
2012-6-9,88.7,76.8,65.6,69.3,66.1,62.6,94,72,47,29.87,29.68,9,6,14,0.00
2012-6-10,93.7,81.2,68.7,73.3,69.9,65.3,95,71,47,29.78,29.69,14,10,21,0.00
2012-6-11,94.4,82.9,72.6,73.1,70.4,64.7,94,69,38,29.95,29.75,13,9,20,0.00
2012-6-12,91.9,79.7,68.6,73.8,70.2,63.9,93,75,47,29.99,29.86,13,8,20,0.00
2012-6-13,90.8,79.6,70.6,72.8,68.9,63.6,95,73,41,30.05,29.80,14,8,20,0.00
2012-6-14,89.2,79.2,71.8,72.6,69.4,65.1,92,73,49,29.89,29.78,15,10,23,0.00
2012-6-15,90.8,79.9,71.3,70.0,68.0,64.0,92,70,43,29.94,29.83,13,9,21,0.00
2012-6-16,91.3,80.3,69.8,70.9,67.9,63.6,95,69,42,30.00,29.86,13,7,19,0.00
2012-6-17,90.3,78.8,65.5,70.3,67.0,63.3,97,70,44,29.99,29.79,14,6,20,0.18
2012-6-18,87.0,76.0,65.6,70.8,67.3,63.4,96,76,51,29.91,29.71,14,8,17,0.11
2012-6-19,89.0,78.1,71.4,72.3,69.8,65.4,94,77,50,29.84,29.75,15,12,24,0.00
2012-6-20,84.7,76.4,72.8,74.1,70.8,69.4,95,83,64,29.93,29.81,15,10,22,0.03
2012-6-21,91.3,79.2,70.9,70.9,67.3,60.3,96,70,40,30.00,29.88,9,4,18,0.00
2012-6-22,91.5,80.2,69.1,70.4,64.5,60.1,93,62,37,29.96,29.83,6,2,13,0.00
2012-6-23,92.2,82.6,71.6,67.4,62.7,56.5,75,52,34,29.88,29.81,7,3,15,0.00
2012-6-24,95.4,83.6,71.6,70.0,65.7,61.7,85,58,37,29.95,29.84,7,3,10,0.00
2012-6-25,98.7,87.0,75.7,68.9,64.1,57.9,73,49,31,29.91,29.75,6,3,11,0.00
2012-6-26,102.2,90.5,79.4,66.1,62.2,57.3,58,40,27,29.81,29.67,9,2,12,0.00
2012-6-27,98.0,88.9,80.2,68.2,64.7,61.4,59,46,31,29.88,29.72,10,4,14,0.00
2012-6-28,93.3,83.4,72.0,69.1,63.5,58.3,81,54,34,29.99,29.88,10,6,17,0.00
2012-6-29,91.8,80.3,71.7,71.7,68.8,63.9,95,70,42,29.97,29.83,12,8,20,0.00
2012-6-30,88.8,78.1,71.6,72.3,69.4,64.1,96,76,51,29.87,29.78,11,6,18,0.00
2012-7-1,84.8,73.7,68.8,71.9,68.9,67.0,97,86,61,29.99,29.85,19,6,26,0.67
2012-7-2,89.6,78.2,70.2,73.9,69.5,61.1,98,78,42,30.04,29.92,14,8,19,0.05
2012-7-3,89.8,79.2,71.5,72.6,69.4,64.7,95,74,44,30.02,29.86,13,9,19,0.00
2012-7-4,90.3,80.6,72.8,70.8,68.4,61.1,92,69,38,29.99,29.86,13,9,21,0.00
2012-7-5,91.3,80.2,71.0,71.4,68.3,62.5,95,70,39,30.00,29.90,13,8,21,0.00
2012-7-6,92.3,81.2,71.2,71.4,66.6,60.1,96,65,35,30.02,29.90,10,6,16,0.00
2012-7-7,94.4,82.0,71.1,72.4,67.2,62.3,92,64,36,30.01,29.88,8,4,12,0.00
2012-7-8,92.9,78.2,70.6,72.9,69.3,64.9,96,77,41,29.99,29.87,12,5,16,0.25
2012-7-9,92.3,76.5,70.9,71.4,69.7,65.8,97,82,45,29.99,29.83,9,5,14,0.17
2012-7-10,89.2,76.1,69.3,73.7,71.1,68.5,98,86,53,29.93,29.81,9,2,16,0.10
2012-7-11,81.0,74.4,70.9,74.6,71.9,69.5,98,92,76,29.93,29.87,8,2,11,0.77
2012-7-12,90.6,78.4,69.7,72.9,70.4,68.0,99,79,50,29.96,29.85,5,2,8,0.01
2012-7-13,93.1,79.8,71.0,73.4,70.0,65.0,96,74,42,29.97,29.85,9,3,12,0.00
2012-7-14,92.1,78.8,70.2,74.4,69.9,62.9,98,76,41,29.98,29.88,11,3,14,0.00
2012-7-15,88.1,74.4,67.3,73.1,68.1,63.5,97,82,54,30.00,29.88,10,5,15,0.84
2012-7-16,88.2,77.8,68.3,72.8,68.9,63.7,98,77,45,29.99,29.88,11,8,19,0.00
2012-7-17,86.2,77.5,71.1,73.0,70.8,67.8,97,81,56,29.97,29.86,10,6,17,0.00
2012-7-18,88.5,77.8,71.6,73.0,70.8,67.0,97,81,53,30.01,29.91,10,6,14,0.00
2012-7-19,90.7,79.0,70.3,73.0,70.1,67.3,97,77,48,30.11,29.99,10,5,16,0.00
2012-7-20,93.6,81.7,70.9,71.3,68.4,64.8,96,67,40,30.08,29.93,10,6,14,0.00
2012-7-21,96.8,84.2,72.7,70.8,67.0,60.6,90,60,32,30.00,29.86,8,5,13,0.00
2012-7-22,94.8,82.9,72.9,72.8,68.4,63.4,89,64,37,30.00,29.89,10,6,16,0.00
2012-7-23,90.0,79.8,72.4,71.8,69.6,64.9,94,73,46,30.05,29.96,11,8,17,0.00
2012-7-24,91.0,81.0,72.4,72.0,69.5,64.9,94,71,44,30.05,29.89,13,8,19,0.00
2012-7-25,91.3,81.3,72.5,72.5,70.1,66.7,92,71,47,29.95,29.79,14,10,21,0.00
2012-7-26,91.0,79.8,71.4,73.4,70.5,67.6,93,75,48,29.92,29.78,15,10,23,0.00
2012-7-27,91.7,80.6,72.7,74.8,70.9,66.7,95,74,45,30.03,29.91,10,7,20,0.01
2012-7-28,94.8,81.7,69.7,71.9,66.9,58.8,97,65,31,30.10,29.97,9,5,13,0.00
2012-7-29,95.3,83.7,71.3,72.2,65.9,58.2,92,59,31,30.06,29.92,9,4,15,0.00
2012-7-30,95.4,83.6,72.2,71.7,66.6,62.9,89,60,35,30.00,29.86,10,5,16,0.00
2012-7-31,97.9,84.7,72.6,72.2,67.6,63.5,92,60,34,29.97,29.86,10,6,15,0.00
2012-8-1,98.1,84.8,72.6,70.1,65.2,59.6,86,56,29,29.94,29.82,10,7,16,0.00
2012-8-2,97.4,84.2,70.5,70.6,64.6,56.8,94,56,28,29.87,29.75,11,8,20,0.00
2012-8-3,95.9,83.1,71.3,70.9,66.2,60.4,92,60,33,29.86,29.76,13,9,21,0.00
2012-8-4,93.6,81.8,71.4,71.1,68.1,63.7,95,66,41,29.98,29.85,13,9,20,0.00
2012-8-5,93.6,80.9,70.5,72.3,68.1,59.0,97,69,35,30.08,29.98,10,4,18,0.00
2012-8-6,96.1,82.4,69.6,69.7,66.9,63.5,95,63,36,30.07,29.92,6,3,13,0.00
2012-8-7,97.3,85.0,73.7,71.9,67.5,61.7,86,59,32,29.96,29.83,8,4,14,0.00
2012-8-8,96.7,84.6,72.2,69.7,65.7,61.6,81,56,32,29.96,29.84,8,4,13,0.00
2012-8-9,98.1,84.7,73.2,71.9,68.1,63.8,89,61,35,29.95,29.81,8,4,13,0.00
2012-8-10,101.9,82.7,74.1,72.5,68.7,62.7,84,65,29,29.91,29.78,12,4,15,0.05
2012-8-11,98.9,87.6,75.7,72.2,67.0,61.5,74,52,30,29.92,29.81,7,3,10,0.00
2012-8-12,95.8,84.7,74.1,71.4,66.7,63.8,87,57,37,29.92,29.82,12,7,16,0.00
2012-8-13,98.7,82.8,73.2,71.8,69.0,64.7,88,66,34,30.00,29.84,11,5,15,0.09
2012-8-14,95.4,84.1,72.5,74.2,68.0,62.4,94,62,36,29.95,29.78,12,7,21,0.00
2012-8-15,94.6,83.1,72.7,71.6,65.8,56.8,92,60,30,29.89,29.77,16,10,23,0.00
2012-8-16,94.5,82.3,70.8,71.0,67.4,63.1,93,64,38,29.96,29.84,12,9,21,0.00
2012-8-17,94.7,83.4,72.2,72.1,68.2,62.8,95,64,37,29.97,29.81,11,7,18,0.00
2012-8-18,91.3,80.2,71.4,72.8,70.0,66.1,96,73,46,29.90,29.73,13,5,18,0.31
2012-8-19,87.1,75.7,67.9,72.5,69.4,67.0,98,82,57,29.94,29.84,9,4,16,0.09
2012-8-20,93.5,80.0,67.9,70.4,66.4,60.8,96,67,36,29.97,29.83,6,2,10,0.00
2012-8-21,89.4,75.8,67.2,69.0,63.9,58.1,94,69,43,29.99,29.89,8,4,13,0.12
2012-8-22,88.1,76.0,66.6,70.7,66.4,64.2,94,74,49,30.06,29.94,6,3,11,0.00
2012-8-23,91.4,78.9,69.6,70.9,66.5,62.3,97,69,40,30.00,29.86,7,4,12,0.00
2012-8-24,90.9,80.3,70.6,72.4,69.0,64.4,97,71,45,29.91,29.76,12,7,23,0.00
2012-8-25,91.8,79.7,70.5,71.5,68.1,63.4,94,70,42,29.87,29.77,16,11,25,0.00
2012-8-26,92.0,80.3,73.3,72.0,70.2,67.4,92,73,46,29.99,29.86,11,8,19,0.00
2012-8-27,94.2,80.2,70.2,71.0,67.2,60.2,97,68,35,30.03,29.88,9,4,14,0.00
2012-8-28,94.0,80.4,68.3,70.7,67.4,64.0,95,67,39,29.94,29.79,9,4,14,0.00
2012-8-29,93.1,81.6,72.2,69.9,63.8,54.5,89,59,28,29.85,29.70,12,5,19,0.00
2012-8-30,95.8,82.8,71.4,66.3,59.9,54.9,61,47,30,29.81,29.67,9,3,16,0.00
2012-8-31,97.1,85.8,76.6,71.5,64.9,58.5,79,52,29,29.93,29.78,12,5,18,0.00
2012-9-1,93.8,81.2,73.1,73.4,70.4,66.0,96,72,41,30.02,29.91,12,9,19,0.00
2012-9-2,92.8,81.3,71.3,71.4,67.6,60.5,94,66,40,30.02,29.88,12,8,20,0.00
2012-9-3,95.3,82.1,70.0,71.3,66.0,57.3,94,63,29,29.98,29.83,12,7,18,0.00
2012-9-4,96.4,82.9,71.4,72.6,67.8,58.2,95,65,33,29.93,29.78,12,8,19,0.00
2012-9-5,97.5,82.8,70.7,70.4,64.1,53.1,96,59,23,29.87,29.76,10,6,16,0.00
2012-9-6,97.8,83.9,71.8,71.6,65.9,60.6,89,59,31,29.92,29.80,8,5,13,0.00
2012-9-7,98.6,84.7,71.8,71.1,63.3,55.4,91,54,27,29.88,29.74,8,5,13,0.00
2012-9-8,85.2,76.7,69.2,68.5,54.7,41.8,73,49,29,30.05,29.79,16,8,25,0.00
2012-9-9,88.3,74.3,60.1,48.4,41.5,32.3,58,34,14,30.15,30.01,8,2,21,0.00
2012-9-10,91.5,77.6,63.5,46.6,41.5,35.0,45,29,15,30.10,29.95,7,2,10,0.00
2012-9-11,89.3,75.6,62.9,66.7,56.7,47.3,92,57,25,30.05,29.93,10,5,14,0.00
2012-9-12,91.6,78.7,69.7,70.7,68.1,62.8,97,73,40,30.01,29.87,12,7,17,0.00
2012-9-13,90.8,74.7,66.3,71.8,68.8,65.0,98,84,44,30.13,29.93,12,7,23,5.22
2012-9-14,67.1,63.5,60.9,66.7,62.7,60.6,99,97,92,30.21,30.11,9,5,17,0.78
2012-9-15,77.4,67.0,59.6,65.6,62.2,58.8,98,85,66,30.22,30.08,8,4,14,0.00
2012-9-16,67.5,63.6,61.1,66.1,62.6,60.1,99,97,85,30.11,29.95,6,2,13,1.58
2012-9-17,81.1,70.0,61.8,65.6,63.4,61.5,100,81,54,29.98,29.80,4,1,8,0.00
2012-9-18,81.0,71.5,63.7,67.1,62.9,58.7,94,75,51,30.07,29.87,11,3,16,0.00
2012-9-19,84.9,72.2,62.0,62.2,58.7,55.3,85,65,42,30.14,30.01,6,2,13,0.00
2012-9-20,87.0,74.6,65.8,67.7,61.5,53.3,97,67,33,30.07,29.95,10,6,13,0.00
2012-9-21,87.2,75.0,64.5,59.9,54.4,44.3,75,52,25,30.01,29.91,6,3,12,0.00
2012-9-22,87.0,74.6,64.2,63.4,59.4,55.0,87,62,37,30.09,29.97,6,3,8,0.00
2012-9-23,88.2,77.0,66.3,66.2,61.5,54.7,91,62,33,30.16,30.07,7,3,10,0.00
2012-9-24,85.7,76.1,67.5,69.0,65.6,61.6,98,72,45,30.12,29.96,12,7,15,0.00
2012-9-25,85.3,76.1,69.3,69.0,65.4,59.1,92,72,43,30.00,29.87,18,12,23,0.00
2012-9-26,86.0,76.1,69.6,69.8,66.8,62.8,95,75,47,30.01,29.90,13,8,23,0.00
2012-9-27,84.9,75.0,68.7,70.7,68.0,64.3,98,80,51,30.05,29.93,10,6,17,0.09
2012-9-28,79.3,72.1,67.1,72.0,69.2,65.9,98,91,75,30.02,29.89,11,4,14,0.49
2012-9-29,76.7,69.3,63.9,73.6,68.4,63.3,99,97,80,29.94,29.68,11,7,16,0.97
2012-9-30,73.7,66.0,61.6,66.1,62.8,59.7,99,90,68,29.90,29.78,11,6,19,0.00
2012-10-1,77.3,65.2,57.9,67.8,59.5,53.6,98,83,63,29.93,29.83,8,2,23,0.21
2012-10-2,75.1,66.2,58.0,56.9,53.7,50.7,85,65,47,30.00,29.92,10,4,15,0.00
2012-10-3,80.1,69.2,58.8,63.2,56.0,52.1,85,64,46,30.01,29.92,12,7,19,0.00
2012-10-4,86.3,75.5,67.6,71.4,68.6,63.0,94,80,55,30.07,29.98,16,11,27,0.00
2012-10-5,83.6,74.4,66.9,70.2,65.5,62.1,98,76,50,30.06,29.93,15,9,24,0.00
2012-10-6,70.2,61.5,50.4,66.6,58.6,48.2,97,90,82,30.13,29.95,12,6,18,0.00
2012-10-7,52.7,48.0,44.6,48.2,43.9,41.4,97,86,73,30.25,30.13,11,7,18,0.00
2012-10-8,68.3,54.6,45.6,53.1,46.3,40.2,85,74,56,30.28,30.09,7,4,17,0.00
2012-10-9,76.8,65.7,56.3,65.8,59.7,51.8,90,81,67,30.09,29.92,18,10,29,0.00
2012-10-10,83.2,73.5,68.5,70.9,68.5,65.5,98,86,62,30.11,29.97,13,6,19,0.00
2012-10-11,83.5,73.7,69.2,73.6,70.4,67.7,98,90,70,30.10,30.00,12,8,21,0.00
2012-10-12,82.3,73.9,68.5,70.0,68.1,66.8,96,83,62,30.14,30.02,16,8,21,0.00
2012-10-13,81.2,74.0,69.3,73.1,70.7,68.1,97,90,74,30.06,29.83,17,12,28,0.03
2012-10-14,80.8,72.7,63.0,71.0,62.2,49.7,98,72,35,30.08,29.89,17,5,26,0.23
2012-10-15,74.8,66.5,59.0,56.3,52.7,49.3,77,62,46,30.12,29.99,4,1,7,0.00
2012-10-16,67.4,65.3,63.2,66.3,59.9,51.6,99,84,63,30.00,29.77,10,6,19,0.07
2012-10-17,90.2,73.3,64.0,69.4,62.7,52.1,99,74,34,29.78,29.62,13,7,20,0.00
2012-10-18,74.0,66.4,58.7,53.1,42.7,35.6,72,44,26,30.00,29.74,8,4,18,0.00
2012-10-19,78.2,66.2,53.4,41.4,36.7,31.8,51,35,20,30.06,29.92,10,3,13,0.00
2012-10-20,81.6,71.0,61.7,70.3,62.7,41.3,92,76,43,29.92,29.77,14,11,21,0.00
2012-10-21,84.7,75.6,69.6,70.3,68.0,65.1,95,79,54,29.90,29.80,16,13,26,0.00
2012-10-22,84.0,74.6,68.3,70.6,67.4,64.4,96,80,53,29.95,29.85,17,11,25,0.00
2012-10-23,79.8,72.4,69.0,70.0,68.1,66.0,93,87,70,29.94,29.87,14,9,22,0.00
2012-10-24,81.5,72.3,66.8,66.8,64.3,60.7,95,78,54,29.96,29.82,16,11,24,0.00
2012-10-25,82.3,71.8,59.2,69.3,64.5,50.8,93,79,61,29.98,29.79,17,10,25,0.00
2012-10-26,59.0,51.3,45.3,50.7,42.4,33.8,90,72,58,30.28,29.98,16,11,26,0.00
2012-10-27,57.1,48.7,42.7,36.5,33.1,30.7,66,56,38,30.34,30.17,12,6,22,0.00
2012-10-28,62.4,55.5,45.7,34.0,31.4,29.3,60,40,30,30.33,30.20,6,3,11,0.00
2012-10-29,49.2,47.6,44.3,30.9,29.9,28.5,55,50,47,30.28,30.25,4,1,5,0.00
2012-11-20,79.8,70.0,59.4,61.3,57.3,51.3,87,66,40,30.23,30.11,8,3,12,0.00
2012-11-21,75.0,65.0,58.9,59.9,55.3,50.3,91,72,49,30.25,30.13,11,4,17,0.00
2012-11-22,73.3,63.2,55.4,58.9,56.6,52.3,97,80,59,30.15,30.04,18,10,24,0.00
2012-11-23,62.2,58.2,50.2,59.3,46.9,27.9,97,70,35,30.40,30.12,12,6,18,0.00
2012-11-24,64.5,52.2,42.5,35.1,27.4,22.9,51,39,22,30.42,30.17,10,4,13,0.00
2012-11-25,71.5,59.5,47.4,58.2,46.6,25.4,90,63,39,30.17,29.93,18,11,30,0.00
2012-11-26,80.8,66.8,55.5,62.8,56.6,40.6,96,72,47,30.20,29.92,13,7,20,0.00
2012-11-27,57.9,48.6,41.6,44.8,36.9,31.3,88,65,49,30.38,30.18,14,6,21,0.00
2012-11-28,66.1,52.1,38.3,47.6,43.1,36.4,96,73,47,30.47,30.30,10,4,15,0.00
2012-11-29,65.3,55.4,44.8,55.1,49.6,41.0,91,81,69,30.31,30.15,12,7,18,0.00
2012-11-30,70.0,60.9,57.0,62.3,58.5,54.6,98,92,73,30.18,30.07,12,7,15,0.00
2012-12-1,74.8,67.4,63.6,65.0,63.4,62.1,98,88,68,30.11,30.01,15,11,25,0.00
2012-12-2,72.8,66.8,62.8,65.6,63.5,60.0,96,89,76,30.13,30.03,15,9,25,0.00
2012-12-3,71.4,64.6,60.6,64.5,61.7,59.3,96,91,78,30.04,29.95,17,10,24,0.00
2012-12-4,70.9,62.1,51.2,63.9,52.4,39.0,98,74,38,30.23,30.00,11,6,16,0.00
2012-12-5,70.6,55.3,41.5,43.4,33.3,28.1,70,46,23,30.28,30.07,8,4,12,0.00
2012-12-6,71.8,58.6,49.2,54.7,50.7,43.3,98,77,49,30.07,29.83,12,9,19,0.00
2012-12-7,69.1,61.1,56.2,61.8,58.6,53.2,99,92,77,29.90,29.79,13,7,19,0.00
2012-12-8,74.3,66.5,62.2,66.5,62.7,60.2,99,88,67,29.91,29.78,10,6,15,0.00
2012-12-9,76.6,65.3,48.6,65.9,59.9,42.5,97,83,59,29.93,29.76,13,8,21,0.00
2012-12-10,48.9,39.0,32.5,42.5,20.6,13.5,79,48,33,30.18,29.92,18,8,33,0.00
2012-12-11,53.5,39.6,29.2,22.8,19.0,15.9,62,45,28,30.29,30.14,5,2,24,0.00
2012-12-12,58.9,45.3,34.0,26.9,22.6,16.6,56,42,28,30.37,30.24,12,5,15,0.00
2012-12-13,61.9,51.2,40.7,48.7,39.9,25.8,81,66,48,30.32,30.19,13,9,19,0.00
2012-12-14,64.7,57.5,51.4,64.1,55.6,45.8,99,93,73,30.19,29.87,17,10,23,0.05
2012-12-15,70.2,62.8,58.2,64.3,49.6,40.4,98,65,37,30.00,29.83,15,3,23,0.00
2012-12-16,68.3,61.4,55.5,59.9,45.5,35.4,97,59,35,29.90,29.77,10,3,11,0.03
2012-12-17,69.3,58.6,48.3,36.1,31.0,25.5,60,37,20,29.99,29.89,8,5,15,0.00
2012-12-18,79.3,65.5,55.0,60.2,38.9,26.8,94,41,17,29.92,29.78,14,9,22,0.00
2012-12-19,76.4,68.1,61.9,64.1,60.5,28.3,98,79,27,29.90,29.61,22,14,29,0.00
2012-12-20,62.7,43.9,35.3,27.9,11.1,0.6,52,28,13,30.52,29.90,18,10,34,0.00
2012-12-21,57.9,45.3,35.6,15.1,10.0,4.2,31,24,15,30.57,30.39,8,3,24,0.00
2012-12-22,61.5,51.8,40.3,53.8,39.9,10.7,90,66,29,30.41,30.10,19,10,31,0.00
2012-12-23,66.2,60.4,56.6,57.3,54.9,49.9,95,83,67,30.10,29.90,17,8,27,0.00
2012-12-24,66.9,56.8,45.2,49.8,36.7,28.9,85,49,28,30.01,29.74,7,3,18,0.00
2012-12-25,61.7,48.4,27.7,58.2,35.3,18.9,97,63,32,30.17,29.58,16,10,27,0.00
2012-12-26,41.7,30.2,22.0,20.1,18.5,15.9,78,63,39,30.33,30.17,16,6,21,0.00
2012-12-27,44.3,36.1,24.8,41.9,32.0,19.6,98,85,72,30.18,29.89,10,4,17,0.00
2012-12-28,59.0,43.8,31.0,45.9,35.4,25.7,98,76,39,30.25,29.86,14,6,28,0.01
2012-12-29,48.1,38.4,29.3,25.7,21.0,18.4,76,50,35,30.53,30.25,11,4,18,0.00
2012-12-30,45.6,39.5,32.9,42.7,26.8,21.3,96,61,42,30.50,30.22,10,5,16,0.00
2012-12-31,58.6,52.4,43.8,58.3,51.9,42.7,99,98,96,30.23,29.97,13,6,17,0.15
2013-1-1,56.0,44.3,34.4,55.7,44.0,33.1,99,99,95,30.28,30.00,11,6,16,0.11